Time,TemperatureF,DewpointF,PressureIn,WindDirection,WindDirectionDegrees,WindSpeedMPH,WindSpeedGustMPH,Humidity,HourlyPrecipIn,Conditions,Clouds,dailyrainin,SoftwareType,DateUTC
2013-01-09 00:00:00,27.4,25.1,30.43,WSW,239,0.0,0.0,91,0.00,,CLR,0.00,VWS V14.00,2013-01-09 05:00:00,
2013-01-09 00:01:00,27.4,25.1,30.43,WSW,239,0.0,0.0,91,0.00,,FEW049,0.00,VWS V14.00,2013-01-09 05:01:00,
2013-01-09 00:02:00,27.3,25.0,30.43,WSW,239,0.0,0.0,91,0.00,,FEW049,0.00,VWS V14.00,2013-01-09 05:02:00,
2013-01-09 00:05:00,27.3,25.3,30.43,WSW,239,0.0,0.0,92,0.00,,FEW049,0.00,VWS V14.00,2013-01-09 05:05:00,
2013-01-09 00:10:00,27.3,25.3,30.43,WSW,239,0.0,0.0,92,0.00,,FEW049,0.00,VWS V14.00,2013-01-09 05:10:00,
2013-01-09 00:15:00,27.1,25.1,30.43,WSW,239,0.0,0.0,92,0.00,,FEW049,0.00,VWS V14.00,2013-01-09 05:15:00,
2013-01-09 00:20:00,26.7,24.4,30.43,WSW,238,0.0,0.0,91,0.00,,FEW049,0.00,VWS V14.00,2013-01-09 05:20:00,
2013-01-09 00:25:00,26.7,24.7,30.43,WSW,239,0.0,0.0,92,0.00,,FEW049,0.00,VWS V14.00,2013-01-09 05:25:00,
2013-01-09 00:30:00,26.7,24.7,30.44,WSW,238,0.0,0.0,92,0.00,,FEW049,0.00,VWS V14.00,2013-01-09 05:30:00,
2013-01-09 00:35:00,26.9,25.1,30.43,WSW,239,0.0,0.0,93,0.00,,FEW049,0.00,VWS V14.00,2013-01-09 05:35:00,
2013-01-09 00:40:00,27.1,25.1,30.43,WSW,238,0.0,0.0,92,0.00,,FEW049,0.00,VWS V14.00,2013-01-09 05:40:00,
2013-01-09 00:45:00,26.9,24.9,30.43,WSW,239,0.0,0.0,92,0.00,,FEW049,0.00,VWS V14.00,2013-01-09 05:45:00,
2013-01-09 00:50:00,26.7,24.7,30.43,WSW,239,0.0,0.0,92,0.00,,FEW049,0.00,VWS V14.00,2013-01-09 05:50:00,
2013-01-09 00:55:00,26.9,25.1,30.43,WSW,239,0.0,0.0,93,0.00,,FEW049,0.00,VWS V14.00,2013-01-09 05:55:00,
2013-01-09 01:00:00,26.9,24.9,30.42,WSW,239,0.0,0.0,92,0.00,,BKN055,0.00,VWS V14.00,2013-01-09 06:00:00,
2013-01-09 01:06:00,26.7,24.7,30.42,WSW,239,0.0,0.0,92,0.00,,BKN055,0.00,VWS V14.00,2013-01-09 06:06:00,
2013-01-09 01:11:00,26.5,24.5,30.42,WSW,239,0.0,0.0,92,0.00,,BKN055,0.00,VWS V14.00,2013-01-09 06:11:00,
2013-01-09 01:16:00,26.2,24.2,30.42,WSW,238,0.0,0.0,92,0.00,,BKN055,0.00,VWS V14.00,2013-01-09 06:16:00,
2013-01-09 01:21:00,26.2,24.2,30.42,WSW,239,0.0,0.0,92,0.00,,BKN055,0.00,VWS V14.00,2013-01-09 06:21:00,
2013-01-09 01:26:00,26.2,24.5,30.43,WSW,239,0.0,0.0,93,0.00,,BKN055,0.00,VWS V14.00,2013-01-09 06:26:00,
2013-01-09 01:30:00,26.5,24.8,30.43,WSW,239,0.0,0.0,93,0.00,,CLR,0.00,VWS V14.00,2013-01-09 06:30:00,
2013-01-09 01:31:00,26.5,24.8,30.43,WSW,239,0.0,0.0,93,0.00,,BKN055,0.00,VWS V14.00,2013-01-09 06:31:00,
2013-01-09 01:36:00,26.5,24.8,30.43,WSW,238,0.0,0.0,93,0.00,,BKN055,0.00,VWS V14.00,2013-01-09 06:36:00,
2013-01-09 01:41:00,26.3,24.3,30.42,WSW,239,0.0,0.0,92,0.00,,BKN055,0.00,VWS V14.00,2013-01-09 06:41:00,
2013-01-09 01:46:00,26.2,24.5,30.42,WSW,239,0.0,0.0,93,0.00,,BKN055,0.00,VWS V14.00,2013-01-09 06:46:00,
2013-01-09 01:51:00,26.2,24.5,30.43,WSW,239,0.0,0.0,93,0.00,,BKN055,0.00,VWS V14.00,2013-01-09 06:51:00,
2013-01-09 01:56:00,26.3,24.6,30.42,WSW,239,0.0,0.0,93,0.00,,BKN055,0.00,VWS V14.00,2013-01-09 06:56:00,
2013-01-09 02:00:00,26.3,24.6,30.42,WSW,239,0.0,0.0,93,0.00,,CLR,0.00,VWS V14.00,2013-01-09 07:00:00,
2013-01-09 02:01:00,26.3,24.6,30.42,WSW,239,0.0,0.0,93,0.00,,FEW042,0.00,VWS V14.00,2013-01-09 07:01:00,
2013-01-09 02:06:00,26.5,24.8,30.42,WSW,238,0.0,0.0,93,0.00,,FEW042,0.00,VWS V14.00,2013-01-09 07:06:00,
2013-01-09 02:11:00,26.6,24.9,30.42,WSW,239,0.0,0.0,93,0.00,,FEW042,0.00,VWS V14.00,2013-01-09 07:11:00,
2013-01-09 02:16:00,26.8,25.0,30.42,WSW,239,0.0,0.0,93,0.00,,FEW042,0.00,VWS V14.00,2013-01-09 07:16:00,
2013-01-09 02:21:00,26.7,25.0,30.42,WSW,239,0.0,0.0,93,0.00,,FEW042,0.00,VWS V14.00,2013-01-09 07:21:00,
2013-01-09 02:26:00,26.6,24.9,30.42,WSW,238,0.0,0.0,93,0.00,,FEW042,0.00,VWS V14.00,2013-01-09 07:26:00,
2013-01-09 02:30:00,26.6,24.9,30.42,WSW,239,0.0,0.0,93,0.00,,CLR,0.00,VWS V14.00,2013-01-09 07:30:00,
2013-01-09 02:31:00,26.5,24.8,30.42,WSW,239,0.0,0.0,93,0.00,,FEW042,0.00,VWS V14.00,2013-01-09 07:31:00,
2013-01-09 02:36:00,26.4,24.6,30.42,WSW,239,0.0,0.0,93,0.00,,FEW042,0.00,VWS V14.00,2013-01-09 07:36:00,
2013-01-09 02:42:00,26.2,24.5,30.42,WSW,238,0.0,0.0,93,0.00,,FEW042,0.00,VWS V14.00,2013-01-09 07:42:00,
2013-01-09 02:47:00,26.1,24.4,30.42,WSW,239,0.0,0.0,93,0.00,,FEW042,0.00,VWS V14.00,2013-01-09 07:47:00,
2013-01-09 02:52:00,26.3,24.6,30.41,WSW,239,0.0,0.0,93,0.00,,FEW042,0.00,VWS V14.00,2013-01-09 07:52:00,
2013-01-09 02:57:00,26.3,24.6,30.41,WSW,238,0.0,0.0,93,0.00,,FEW042,0.00,VWS V14.00,2013-01-09 07:57:00,
2013-01-09 03:00:00,26.4,24.6,30.41,WSW,238,0.0,0.0,93,0.00,,CLR,0.00,VWS V14.00,2013-01-09 08:00:00,
2013-01-09 03:02:00,26.4,24.6,30.41,WSW,239,0.0,0.0,93,0.00,,OVC048,0.00,VWS V14.00,2013-01-09 08:02:00,
2013-01-09 03:07:00,26.3,24.6,30.41,WSW,239,0.0,0.0,93,0.00,,OVC048,0.00,VWS V14.00,2013-01-09 08:07:00,
2013-01-09 03:12:00,26.3,24.6,30.41,WSW,239,0.0,0.0,93,0.00,,OVC048,0.00,VWS V14.00,2013-01-09 08:12:00,
2013-01-09 03:17:00,26.3,24.6,30.41,WSW,238,0.0,0.0,93,0.00,,OVC048,0.00,VWS V14.00,2013-01-09 08:17:00,
2013-01-09 03:22:00,26.4,24.6,30.40,WSW,239,0.0,0.0,93,0.00,,OVC048,0.00,VWS V14.00,2013-01-09 08:22:00,
2013-01-09 03:27:00,26.2,24.2,30.40,WSW,239,0.0,0.0,92,0.00,,OVC048,0.00,VWS V14.00,2013-01-09 08:27:00,
2013-01-09 03:30:00,26.1,24.1,30.40,WSW,238,0.0,0.0,92,0.00,,CLR,0.00,VWS V14.00,2013-01-09 08:30:00,
2013-01-09 03:32:00,26.1,24.1,30.40,WSW,239,0.0,0.0,92,0.00,,OVC048,0.00,VWS V14.00,2013-01-09 08:32:00,
2013-01-09 03:37:00,26.2,24.5,30.41,WSW,239,0.0,0.0,93,0.00,,OVC048,0.00,VWS V14.00,2013-01-09 08:37:00,
2013-01-09 03:42:00,26.3,24.6,30.41,WSW,239,0.0,0.0,93,0.00,,OVC048,0.00,VWS V14.00,2013-01-09 08:42:00,
2013-01-09 03:47:00,26.5,24.8,30.40,WSW,239,0.0,0.0,93,0.00,,OVC048,0.00,VWS V14.00,2013-01-09 08:47:00,
2013-01-09 03:52:00,26.6,24.9,30.40,WSW,238,0.0,0.0,93,0.00,,OVC048,0.00,VWS V14.00,2013-01-09 08:52:00,
2013-01-09 03:57:00,26.7,25.0,30.40,WSW,239,0.0,0.0,93,0.00,,OVC048,0.00,VWS V14.00,2013-01-09 08:57:00,
2013-01-09 04:00:00,26.7,25.0,30.40,WSW,239,0.0,0.0,93,0.00,,CLR,0.00,VWS V14.00,2013-01-09 09:00:00,
2013-01-09 04:02:00,26.7,25.0,30.40,WSW,239,0.0,0.0,93,0.00,,OVC046,0.00,VWS V14.00,2013-01-09 09:02:00,
2013-01-09 04:07:00,26.6,24.9,30.40,WSW,239,0.0,0.0,93,0.00,,OVC046,0.00,VWS V14.00,2013-01-09 09:07:00,
2013-01-09 04:12:00,26.6,24.9,30.40,WSW,239,0.0,0.0,93,0.00,,OVC046,0.00,VWS V14.00,2013-01-09 09:12:00,
2013-01-09 04:17:00,26.9,25.4,30.40,WSW,238,0.0,0.0,94,0.00,,OVC046,0.00,VWS V14.00,2013-01-09 09:17:00,
2013-01-09 04:22:00,27.1,25.4,30.40,WSW,238,0.0,0.0,93,0.00,,OVC046,0.00,VWS V14.00,2013-01-09 09:22:00,
2013-01-09 04:27:00,27.3,25.5,30.40,WSW,238,0.0,0.0,93,0.00,,OVC046,0.00,VWS V14.00,2013-01-09 09:27:00,
2013-01-09 04:30:00,27.3,25.5,30.40,WSW,239,0.0,0.0,93,0.00,,CLR,0.00,VWS V14.00,2013-01-09 09:30:00,
2013-01-09 04:33:00,27.3,25.5,30.40,WSW,239,0.0,0.0,93,0.00,,OVC046,0.00,VWS V14.00,2013-01-09 09:33:00,
2013-01-09 04:38:00,27.4,25.6,30.41,WSW,238,0.0,0.0,93,0.00,,OVC046,0.00,VWS V14.00,2013-01-09 09:38:00,
2013-01-09 04:43:00,27.6,25.8,30.40,WSW,239,0.0,0.0,93,0.00,,OVC046,0.00,VWS V14.00,2013-01-09 09:43:00,
2013-01-09 04:48:00,27.7,25.9,30.40,WSW,239,0.0,0.0,93,0.00,,OVC046,0.00,VWS V14.00,2013-01-09 09:48:00,
2013-01-09 04:53:00,27.7,25.9,30.40,WSW,238,0.0,0.0,93,0.00,,OVC046,0.00,VWS V14.00,2013-01-09 09:53:00,
2013-01-09 04:58:00,27.5,25.8,30.40,WSW,239,0.0,1.0,93,0.00,,OVC046,0.00,VWS V14.00,2013-01-09 09:58:00,
2013-01-09 05:00:00,27.5,25.5,30.40,WSW,239,0.0,1.0,92,0.00,,CLR,0.00,VWS V14.00,2013-01-09 10:00:00,
2013-01-09 05:03:00,27.5,25.8,30.40,WSW,239,0.0,1.0,93,0.00,,OVC040,0.00,VWS V14.00,2013-01-09 10:03:00,
2013-01-09 05:08:00,27.7,25.9,30.40,SSE,167,0.0,3.0,93,0.00,,OVC040,0.00,VWS V14.00,2013-01-09 10:08:00,
2013-01-09 05:13:00,27.8,26.0,30.39,WSW,238,0.0,3.0,93,0.00,,OVC040,0.00,VWS V14.00,2013-01-09 10:13:00,
2013-01-09 05:18:00,27.7,25.9,30.40,SW,223,0.0,3.0,93,0.00,,OVC040,0.00,VWS V14.00,2013-01-09 10:18:00,
2013-01-09 05:23:00,27.6,25.8,30.39,South,174,0.0,3.0,93,0.00,,OVC040,0.00,VWS V14.00,2013-01-09 10:23:00,
2013-01-09 05:28:00,27.5,25.8,30.40,South,174,0.0,3.0,93,0.00,,OVC040,0.00,VWS V14.00,2013-01-09 10:28:00,
2013-01-09 05:30:00,27.5,25.8,30.40,South,175,0.0,3.0,93,0.00,,CLR,0.00,VWS V14.00,2013-01-09 10:30:00,
2013-01-09 05:33:00,27.4,25.4,30.40,South,174,0.0,0.0,92,0.00,,OVC040,0.00,VWS V14.00,2013-01-09 10:33:00,
2013-01-09 05:38:00,27.3,25.5,30.40,South,174,0.0,0.0,93,0.00,,OVC040,0.00,VWS V14.00,2013-01-09 10:38:00,
2013-01-09 05:43:00,27.4,25.6,30.40,South,174,1.0,1.0,93,0.00,,OVC040,0.00,VWS V14.00,2013-01-09 10:43:00,
2013-01-09 05:48:00,27.7,25.9,30.40,South,174,1.0,2.0,93,0.00,,OVC040,0.00,VWS V14.00,2013-01-09 10:48:00,
2013-01-09 05:53:00,27.9,26.1,30.40,South,174,0.0,2.0,93,0.00,,OVC040,0.00,VWS V14.00,2013-01-09 10:53:00,
2013-01-09 05:58:00,27.9,26.1,30.41,South,174,0.0,2.0,93,0.00,,OVC040,0.00,VWS V14.00,2013-01-09 10:58:00,
2013-01-09 06:00:00,27.9,26.1,30.40,South,174,0.0,2.0,93,0.00,,CLR,0.00,VWS V14.00,2013-01-09 11:00:00,
2013-01-09 06:03:00,27.7,25.9,30.41,South,174,0.0,0.0,93,0.00,,,0.00,VWS V14.00,2013-01-09 11:03:00,
2013-01-09 06:08:00,27.5,25.5,30.41,South,175,0.0,0.0,92,0.00,,,0.00,VWS V14.00,2013-01-09 11:08:00,
2013-01-09 06:13:00,27.4,25.6,30.40,South,174,0.0,0.0,93,0.00,,,0.00,VWS V14.00,2013-01-09 11:13:00,
2013-01-09 06:19:00,27.3,25.5,30.40,South,174,0.0,0.0,93,0.00,,,0.00,VWS V14.00,2013-01-09 11:19:00,
2013-01-09 06:24:00,27.0,25.2,30.41,South,174,0.0,0.0,93,0.00,,,0.00,VWS V14.00,2013-01-09 11:24:00,
2013-01-09 06:29:00,26.6,24.6,30.41,South,174,0.0,0.0,92,0.00,,,0.00,VWS V14.00,2013-01-09 11:29:00,
2013-01-09 06:30:00,26.6,24.6,30.41,South,175,0.0,0.0,92,0.00,,CLR,0.00,VWS V14.00,2013-01-09 11:30:00,
2013-01-09 06:34:00,26.4,24.6,30.41,South,174,0.0,0.0,93,0.00,,,0.00,VWS V14.00,2013-01-09 11:34:00,
2013-01-09 06:39:00,26.3,24.6,30.41,South,175,0.0,0.0,93,0.00,,,0.00,VWS V14.00,2013-01-09 11:39:00,
2013-01-09 06:44:00,26.3,24.6,30.41,South,175,0.0,0.0,93,0.00,,,0.00,VWS V14.00,2013-01-09 11:44:00,
2013-01-09 06:49:00,26.3,24.6,30.41,South,174,0.0,0.0,93,0.00,,,0.00,VWS V14.00,2013-01-09 11:49:00,
2013-01-09 06:54:00,26.3,24.6,30.41,South,174,0.0,0.0,93,0.00,,,0.00,VWS V14.00,2013-01-09 11:54:00,
2013-01-09 06:59:00,26.1,24.4,30.41,South,175,0.0,0.0,93,0.00,,,0.00,VWS V14.00,2013-01-09 11:59:00,
2013-01-09 07:00:00,26.1,24.4,30.41,South,174,0.0,0.0,93,0.00,,CLR,0.00,VWS V14.00,2013-01-09 12:00:00,
2013-01-09 07:04:00,26.0,24.3,30.41,South,175,0.0,0.0,93,0.00,,,0.00,VWS V14.00,2013-01-09 12:04:00,
2013-01-09 07:09:00,25.8,24.1,30.42,South,174,0.0,0.0,93,0.00,,,0.00,VWS V14.00,2013-01-09 12:09:00,
2013-01-09 07:14:00,25.7,24.0,30.42,South,174,0.0,0.0,93,0.00,,,0.00,VWS V14.00,2013-01-09 12:14:00,
2013-01-09 07:19:00,25.6,23.9,30.42,South,174,0.0,0.0,93,0.00,,,0.00,VWS V14.00,2013-01-09 12:19:00,
2013-01-09 07:24:00,25.7,24.2,30.42,South,174,0.0,0.0,94,0.00,,,0.00,VWS V14.00,2013-01-09 12:24:00,
2013-01-09 07:29:00,25.7,24.2,30.42,South,174,0.0,0.0,94,0.00,,,0.00,VWS V14.00,2013-01-09 12:29:00,
2013-01-09 07:30:00,25.7,24.2,30.42,South,174,0.0,0.0,94,0.00,,CLR,0.00,VWS V14.00,2013-01-09 12:30:00,
2013-01-09 07:35:00,25.5,23.8,30.42,South,174,0.0,0.0,93,0.00,,,0.00,VWS V14.00,2013-01-09 12:35:00,
2013-01-09 07:40:00,25.4,23.7,30.42,South,174,0.0,0.0,93,0.00,,,0.00,VWS V14.00,2013-01-09 12:40:00,
2013-01-09 07:45:00,25.2,23.5,30.41,South,174,0.0,0.0,93,0.00,,,0.00,VWS V14.00,2013-01-09 12:45:00,
2013-01-09 07:50:00,25.1,23.4,30.41,South,174,0.0,0.0,93,0.00,,,0.00,VWS V14.00,2013-01-09 12:50:00,
2013-01-09 07:55:00,25.3,23.6,30.42,South,174,0.0,1.0,93,0.00,,,0.00,VWS V14.00,2013-01-09 12:55:00,
2013-01-09 08:00:00,25.6,24.1,30.41,South,175,0.0,0.0,94,0.00,,,0.00,VWS V14.00,2013-01-09 13:00:00,
2013-01-09 08:05:00,26.0,24.5,30.42,South,174,0.0,0.0,94,0.00,,,0.00,VWS V14.00,2013-01-09 13:05:00,
2013-01-09 08:10:00,26.2,24.7,30.42,South,174,0.0,0.0,94,0.00,,,0.00,VWS V14.00,2013-01-09 13:10:00,
2013-01-09 08:15:00,26.6,25.1,30.42,South,174,0.0,0.0,94,0.00,,,0.00,VWS V14.00,2013-01-09 13:15:00,
2013-01-09 08:20:00,27.0,25.5,30.42,South,174,0.0,0.0,94,0.00,,,0.00,VWS V14.00,2013-01-09 13:20:00,
2013-01-09 08:25:00,27.5,26.0,30.42,South,175,0.0,0.0,94,0.00,,,0.00,VWS V14.00,2013-01-09 13:25:00,
2013-01-09 08:30:00,28.1,26.6,30.42,South,175,0.0,0.0,94,0.00,,,0.00,VWS V14.00,2013-01-09 13:30:00,
2013-01-09 08:35:00,28.7,27.2,30.42,South,174,0.0,0.0,94,0.00,,,0.00,VWS V14.00,2013-01-09 13:35:00,
2013-01-09 08:40:00,29.4,27.9,30.42,South,174,0.0,0.0,94,0.00,,,0.00,VWS V14.00,2013-01-09 13:40:00,
2013-01-09 08:45:00,30.3,28.8,30.42,South,174,0.0,0.0,94,0.00,,,0.00,VWS V14.00,2013-01-09 13:45:00,
2013-01-09 08:50:00,31.2,29.4,30.43,South,174,0.0,0.0,93,0.00,,,0.00,VWS V14.00,2013-01-09 13:50:00,
2013-01-09 08:56:00,31.8,29.8,30.42,South,174,0.0,0.0,92,0.00,,,0.00,VWS V14.00,2013-01-09 13:56:00,
2013-01-09 09:00:00,32.3,30.2,30.42,South,175,0.0,0.0,92,0.00,,CLR,0.00,VWS V14.00,2013-01-09 14:00:00,
2013-01-09 09:01:00,32.5,30.4,30.42,South,174,0.0,0.0,92,0.00,,,0.00,VWS V14.00,2013-01-09 14:01:00,
2013-01-09 09:06:00,33.1,30.5,30.43,South,175,0.0,0.0,90,0.00,,,0.00,VWS V14.00,2013-01-09 14:06:00,
2013-01-09 09:11:00,33.7,31.1,30.42,South,174,0.0,0.0,90,0.00,,,0.00,VWS V14.00,2013-01-09 14:11:00,
2013-01-09 09:16:00,34.2,31.0,30.42,South,174,0.0,0.0,88,0.00,,,0.00,VWS V14.00,2013-01-09 14:16:00,
2013-01-09 09:21:00,34.3,30.8,30.42,South,174,0.0,0.0,87,0.00,,,0.00,VWS V14.00,2013-01-09 14:21:00,
2013-01-09 09:26:00,34.6,31.1,30.41,South,174,0.0,0.0,87,0.00,,,0.00,VWS V14.00,2013-01-09 14:26:00,
2013-01-09 09:30:00,34.8,31.3,30.41,East,101,0.0,0.0,87,0.00,,CLR,0.00,VWS V14.00,2013-01-09 14:30:00,
2013-01-09 09:31:00,34.9,31.1,30.41,East,100,0.0,0.0,86,0.00,,,0.00,VWS V14.00,2013-01-09 14:31:00,
2013-01-09 09:36:00,35.3,31.8,30.41,East,100,0.0,0.0,87,0.00,,,0.00,VWS V14.00,2013-01-09 14:36:00,
2013-01-09 09:41:00,35.6,31.5,30.41,SE,134,0.0,0.0,85,0.00,,,0.00,VWS V14.00,2013-01-09 14:41:00,
2013-01-09 09:46:00,35.8,32.0,30.40,SSE,154,0.0,0.0,86,0.00,,,0.00,VWS V14.00,2013-01-09 14:46:00,
2013-01-09 09:51:00,35.7,31.9,30.40,SSE,150,1.0,2.0,86,0.00,,,0.00,VWS V14.00,2013-01-09 14:51:00,
2013-01-09 09:56:00,35.9,32.1,30.40,SSE,151,0.0,2.0,86,0.00,,,0.00,VWS V14.00,2013-01-09 14:56:00,
2013-01-09 10:00:00,36.2,32.4,30.40,SSE,150,0.0,2.0,86,0.00,,CLR,0.00,VWS V14.00,2013-01-09 15:00:00,
2013-01-09 10:01:00,36.4,32.3,30.40,SSE,149,0.0,0.0,85,0.00,,,0.00,VWS V14.00,2013-01-09 15:01:00,
2013-01-09 10:06:00,36.8,32.7,30.39,SSE,152,0.0,0.0,85,0.00,,,0.00,VWS V14.00,2013-01-09 15:06:00,
2013-01-09 10:11:00,37.3,32.6,30.39,SSE,152,0.0,0.0,83,0.00,,,0.00,VWS V14.00,2013-01-09 15:11:00,
2013-01-09 10:17:00,37.7,33.3,30.38,SSW,205,1.0,1.0,84,0.00,,,0.00,VWS V14.00,2013-01-09 15:17:00,
2013-01-09 10:22:00,38.3,33.6,30.38,SSW,200,1.0,2.0,83,0.00,,,0.00,VWS V14.00,2013-01-09 15:22:00,
2013-01-09 10:27:00,38.6,33.6,30.37,SSE,163,0.0,2.0,82,0.00,,,0.00,VWS V14.00,2013-01-09 15:27:00,
2013-01-09 10:30:00,38.9,33.9,30.37,ESE,107,0.0,2.0,82,0.00,,CLR,0.00,VWS V14.00,2013-01-09 15:30:00,
2013-01-09 10:32:00,39.3,34.0,30.36,ESE,115,1.0,2.0,81,0.00,,,0.00,VWS V14.00,2013-01-09 15:32:00,
2013-01-09 10:37:00,39.4,33.8,30.35,SSE,155,1.0,2.0,80,0.00,,,0.00,VWS V14.00,2013-01-09 15:37:00,
2013-01-09 10:42:00,39.6,34.0,30.37,NW,319,0.0,2.0,80,0.00,,,0.00,VWS V14.00,2013-01-09 15:42:00,
2013-01-09 10:47:00,39.7,34.0,30.37,West,267,1.0,2.0,80,0.00,,,0.00,VWS V14.00,2013-01-09 15:47:00,
2013-01-09 10:52:00,40.1,34.4,30.37,WNW,298,2.0,2.0,80,0.00,,,0.00,VWS V14.00,2013-01-09 15:52:00,
2013-01-09 10:57:00,40.7,34.7,30.37,West,274,0.0,2.0,79,0.00,,,0.00,VWS V14.00,2013-01-09 15:57:00,
2013-01-09 11:00:00,40.9,34.9,30.37,SSW,204,1.0,2.0,79,0.00,,CLR,0.00,VWS V14.00,2013-01-09 16:00:00,
2013-01-09 11:02:00,41.2,35.2,30.36,South,176,1.0,1.0,79,0.00,,,0.00,VWS V14.00,2013-01-09 16:02:00,
2013-01-09 11:07:00,41.5,35.5,30.36,SSW,198,1.0,1.0,79,0.00,,,0.00,VWS V14.00,2013-01-09 16:07:00,
2013-01-09 11:12:00,41.9,35.9,30.35,South,186,1.0,2.0,79,0.00,,,0.00,VWS V14.00,2013-01-09 16:12:00,
2013-01-09 11:17:00,42.3,35.9,30.35,SSW,211,0.0,2.0,78,0.00,,,0.00,VWS V14.00,2013-01-09 16:17:00,
2013-01-09 11:23:00,42.8,36.1,30.35,SSW,198,1.0,2.0,77,0.00,,,0.00,VWS V14.00,2013-01-09 16:23:00,
2013-01-09 11:28:00,43.2,36.2,30.35,SW,229,4.0,4.0,76,0.00,,,0.00,VWS V14.00,2013-01-09 16:28:00,
2013-01-09 11:30:00,43.3,35.9,30.35,SW,214,1.0,4.0,75,0.00,,CLR,0.00,VWS V14.00,2013-01-09 16:30:00,
2013-01-09 11:33:00,43.3,35.9,30.34,SSW,210,1.0,5.0,75,0.00,,,0.00,VWS V14.00,2013-01-09 16:33:00,
2013-01-09 11:38:00,43.4,36.3,30.33,SSE,158,1.0,5.0,76,0.00,,,0.00,VWS V14.00,2013-01-09 16:38:00,
2013-01-09 11:43:00,43.7,36.3,30.33,SSW,193,1.0,5.0,75,0.00,,,0.00,VWS V14.00,2013-01-09 16:43:00,
2013-01-09 11:48:00,43.9,36.5,30.33,SW,236,1.0,5.0,75,0.00,,,0.00,VWS V14.00,2013-01-09 16:48:00,
2013-01-09 11:53:00,44.0,36.3,30.33,SSW,194,0.0,5.0,74,0.00,,,0.00,VWS V14.00,2013-01-09 16:53:00,
2013-01-09 11:58:00,44.1,36.4,30.33,WSW,252,0.0,5.0,74,0.00,,,0.00,VWS V14.00,2013-01-09 16:58:00,
2013-01-09 12:00:00,44.1,36.4,30.33,WSW,251,0.0,5.0,74,0.00,,CLR,0.00,VWS V14.00,2013-01-09 17:00:00,
2013-01-09 12:03:00,44.2,36.5,30.32,SSW,205,1.0,2.0,74,0.00,,FEW110,0.00,VWS V14.00,2013-01-09 17:03:00,
2013-01-09 12:08:00,44.3,36.5,30.31,SSW,198,1.0,2.0,74,0.00,,FEW110,0.00,VWS V14.00,2013-01-09 17:08:00,
2013-01-09 12:13:00,44.3,36.9,30.31,WSW,242,1.0,2.0,75,0.00,,FEW110,0.00,VWS V14.00,2013-01-09 17:13:00,
2013-01-09 12:18:00,44.5,36.7,30.30,West,269,0.0,3.0,74,0.00,,FEW110,0.00,VWS V14.00,2013-01-09 17:18:00,
2013-01-09 12:23:00,44.6,36.8,30.30,SW,221,0.0,3.0,74,0.00,,FEW110,0.00,VWS V14.00,2013-01-09 17:23:00,
2013-01-09 12:28:00,44.8,37.0,30.31,SW,221,0.0,3.0,74,0.00,,FEW110,0.00,VWS V14.00,2013-01-09 17:28:00,
2013-01-09 12:30:00,44.9,37.1,30.30,West,269,0.0,3.0,74,0.00,,CLR,0.00,VWS V14.00,2013-01-09 17:30:00,
2013-01-09 12:33:00,45.0,36.9,30.30,SSW,192,1.0,2.0,73,0.00,,FEW110,0.00,VWS V14.00,2013-01-09 17:33:00,
2013-01-09 12:38:00,45.1,37.0,30.30,SSW,210,1.0,2.0,73,0.00,,FEW110,0.00,VWS V14.00,2013-01-09 17:38:00,
2013-01-09 12:43:00,45.2,37.1,30.30,SW,228,1.0,2.0,73,0.00,,FEW110,0.00,VWS V14.00,2013-01-09 17:43:00,
2013-01-09 12:48:00,45.3,36.8,30.30,SSW,200,2.0,5.0,72,0.00,,FEW110,0.00,VWS V14.00,2013-01-09 17:48:00,
2013-01-09 12:53:00,45.2,36.7,30.29,SSW,197,4.0,5.0,72,0.00,,FEW110,0.00,VWS V14.00,2013-01-09 17:53:00,
2013-01-09 12:58:00,45.1,36.6,30.30,South,186,2.0,6.0,72,0.00,,FEW110,0.00,VWS V14.00,2013-01-09 17:58:00,
2013-01-09 13:00:00,45.1,36.6,30.30,SW,214,2.0,6.0,72,0.00,,CLR,0.00,VWS V14.00,2013-01-09 18:00:00,
2013-01-09 13:03:00,45.2,36.7,30.29,SSW,211,3.0,6.0,72,0.00,,OVC100,0.00,VWS V14.00,2013-01-09 18:03:00,
2013-01-09 13:08:00,45.2,37.1,30.30,SSW,205,0.0,6.0,73,0.00,,OVC100,0.00,VWS V14.00,2013-01-09 18:08:00,
2013-01-09 13:13:00,45.3,36.8,30.30,SSW,198,1.0,6.0,72,0.00,,OVC100,0.00,VWS V14.00,2013-01-09 18:13:00,
2013-01-09 13:19:00,45.4,36.9,30.30,West,274,1.0,6.0,72,0.00,,OVC100,0.00,VWS V14.00,2013-01-09 18:19:00,
2013-01-09 13:24:00,45.5,37.0,30.30,NW,311,2.0,6.0,72,0.00,,OVC100,0.00,VWS V14.00,2013-01-09 18:24:00,
2013-01-09 13:29:00,45.5,37.0,30.30,SSW,201,4.0,6.0,72,0.00,,OVC100,0.00,VWS V14.00,2013-01-09 18:29:00,
2013-01-09 13:30:00,45.5,37.0,30.30,SSW,210,3.0,6.0,72,0.00,,CLR,0.00,VWS V14.00,2013-01-09 18:30:00,
2013-01-09 13:34:00,45.6,37.5,30.30,SSE,160,2.0,4.0,73,0.00,,OVC100,0.00,VWS V14.00,2013-01-09 18:34:00,
2013-01-09 13:39:00,45.7,37.2,30.30,SSW,201,2.0,4.0,72,0.00,,OVC100,0.00,VWS V14.00,2013-01-09 18:39:00,
2013-01-09 13:41:00,45.8,37.3,30.30,SSW,210,2.0,4.0,72,0.00,,OVC100,0.00,VWS V14.00,2013-01-09 18:41:00,
2013-01-09 13:42:00,45.9,37.4,30.30,WSW,255,2.0,4.0,72,0.00,,OVC100,0.00,VWS V14.00,2013-01-09 18:42:00,
2013-01-09 13:44:00,45.9,37.4,30.30,SSW,203,3.0,4.0,72,0.00,,OVC100,0.00,VWS V14.00,2013-01-09 18:44:00,
2013-01-09 13:46:00,46.1,37.9,30.29,NW,310,1.0,4.0,73,0.00,,OVC100,0.00,VWS V14.00,2013-01-09 18:46:00,
2013-01-09 13:48:00,46.3,37.8,30.30,West,266,2.0,4.0,72,0.00,,OVC100,0.00,VWS V14.00,2013-01-09 18:48:00,
2013-01-09 13:51:00,46.6,38.1,30.30,South,184,2.0,6.0,72,0.00,,OVC100,0.00,VWS V14.00,2013-01-09 18:51:00,
2013-01-09 13:56:00,47.1,37.8,30.30,SW,233,2.0,9.0,70,0.00,,OVC100,0.00,VWS V14.00,2013-01-09 18:56:00,
2013-01-09 14:00:00,47.4,38.5,30.29,SW,217,2.0,9.0,71,0.00,,CLR,0.00,VWS V14.00,2013-01-09 19:00:00,
2013-01-09 14:01:00,47.6,38.7,30.29,WSW,246,3.0,4.0,71,0.00,,OVC100,0.00,VWS V14.00,2013-01-09 19:01:00,
2013-01-09 14:06:00,47.9,38.2,30.27,SW,214,2.0,5.0,69,0.00,,OVC100,0.00,VWS V14.00,2013-01-09 19:06:00,
2013-01-09 14:11:00,47.9,38.6,30.26,South,179,3.0,7.0,70,0.00,,OVC100,0.00,VWS V14.00,2013-01-09 19:11:00,
2013-01-09 14:16:00,48.1,39.2,30.25,South,170,5.0,8.0,71,0.00,,OVC100,0.00,VWS V14.00,2013-01-09 19:16:00,
2013-01-09 14:21:00,48.4,39.1,30.24,South,186,4.0,8.0,70,0.00,,OVC100,0.00,VWS V14.00,2013-01-09 19:21:00,
2013-01-09 14:26:00,48.6,39.3,30.22,South,191,8.0,10.0,70,0.00,,OVC100,0.00,VWS V14.00,2013-01-09 19:26:00,
2013-01-09 14:30:00,48.5,39.2,30.21,SSE,154,8.0,11.0,70,0.00,,CLR,0.00,VWS V14.00,2013-01-09 19:30:00,
2013-01-09 14:32:00,48.5,39.2,30.21,SSW,198,6.0,10.0,70,0.00,,OVC100,0.00,VWS V14.00,2013-01-09 19:32:00,
2013-01-09 14:37:00,48.5,38.8,30.19,SSE,160,6.0,11.0,69,0.00,,OVC100,0.00,VWS V14.00,2013-01-09 19:37:00,
2013-01-09 14:42:00,48.5,39.2,30.19,South,191,5.0,11.0,70,0.00,,OVC100,0.00,VWS V14.00,2013-01-09 19:42:00,
2013-01-09 14:47:00,48.5,39.2,30.19,SSW,192,4.0,11.0,70,0.00,,OVC100,0.00,VWS V14.00,2013-01-09 19:47:00,
2013-01-09 14:52:00,48.5,39.2,30.19,SSW,205,5.0,11.0,70,0.00,,OVC100,0.00,VWS V14.00,2013-01-09 19:52:00,
2013-01-09 14:57:00,48.6,38.9,30.20,South,191,3.0,11.0,69,0.00,,OVC100,0.00,VWS V14.00,2013-01-09 19:57:00,
2013-01-09 15:00:00,48.6,38.9,30.20,South,189,6.0,11.0,69,0.00,,CLR,0.00,VWS V14.00,2013-01-09 20:00:00,
2013-01-09 15:02:00,48.6,38.9,30.20,SSW,201,2.0,9.0,69,0.00,,BKN100,0.00,VWS V14.00,2013-01-09 20:02:00,
2013-01-09 15:07:00,48.5,38.8,30.20,South,183,3.0,9.0,69,0.00,,BKN100,0.00,VWS V14.00,2013-01-09 20:07:00,
2013-01-09 15:13:00,48.5,38.8,30.20,SSW,203,3.0,9.0,69,0.00,,BKN100,0.00,VWS V14.00,2013-01-09 20:13:00,
2013-01-09 15:18:00,48.5,38.8,30.20,SSW,197,2.0,9.0,69,0.00,,BKN100,0.00,VWS V14.00,2013-01-09 20:18:00,
2013-01-09 15:23:00,48.4,38.7,30.20,SW,217,3.0,9.0,69,0.00,,BKN100,0.00,VWS V14.00,2013-01-09 20:23:00,
2013-01-09 15:28:00,48.4,39.1,30.20,SSW,200,3.0,9.0,70,0.00,,BKN100,0.00,VWS V14.00,2013-01-09 20:28:00,
2013-01-09 15:30:00,48.4,39.1,30.20,SSW,203,3.0,9.0,70,0.00,,CLR,0.00,VWS V14.00,2013-01-09 20:30:00,
2013-01-09 15:33:00,48.3,39.0,30.20,SW,215,4.0,8.0,70,0.00,,BKN100,0.00,VWS V14.00,2013-01-09 20:33:00,
2013-01-09 15:38:00,48.3,39.0,30.20,SSW,203,2.0,8.0,70,0.00,,BKN100,0.00,VWS V14.00,2013-01-09 20:38:00,
2013-01-09 15:43:00,48.1,39.2,30.20,SW,233,2.0,8.0,71,0.00,,BKN100,0.00,VWS V14.00,2013-01-09 20:43:00,
2013-01-09 15:48:00,48.1,39.2,30.20,SSW,201,5.0,8.0,71,0.00,,BKN100,0.00,VWS V14.00,2013-01-09 20:48:00,
2013-01-09 15:53:00,48.1,39.2,30.19,SW,215,5.0,8.0,71,0.00,,BKN100,0.00,VWS V14.00,2013-01-09 20:53:00,
2013-01-09 15:59:00,48.0,39.1,30.19,SSW,194,4.0,9.0,71,0.00,,BKN100,0.00,VWS V14.00,2013-01-09 20:59:00,
2013-01-09 16:00:00,48.1,39.2,30.19,SSW,194,3.0,9.0,71,0.00,,CLR,0.00,VWS V14.00,2013-01-09 21:00:00,
2013-01-09 16:04:00,48.0,39.1,30.19,SSW,204,3.0,7.0,71,0.00,,BKN110,0.00,VWS V14.00,2013-01-09 21:04:00,
2013-01-09 16:09:00,47.9,39.3,30.19,SSW,200,3.0,7.0,72,0.00,,BKN110,0.00,VWS V14.00,2013-01-09 21:09:00,
2013-01-09 16:14:00,47.9,39.3,30.19,SSW,201,4.0,7.0,72,0.00,,BKN110,0.00,VWS V14.00,2013-01-09 21:14:00,
2013-01-09 16:19:00,47.9,39.3,30.19,West,262,1.0,7.0,72,0.00,,BKN110,0.00,VWS V14.00,2013-01-09 21:19:00,
2013-01-09 16:24:00,47.9,39.3,30.20,SSW,200,2.0,9.0,72,0.00,,BKN110,0.00,VWS V14.00,2013-01-09 21:24:00,
2013-01-09 16:29:00,47.8,39.2,30.20,SW,214,3.0,9.0,72,0.00,,BKN110,0.00,VWS V14.00,2013-01-09 21:29:00,
2013-01-09 16:30:00,47.8,39.2,30.20,SSW,210,3.0,9.0,72,0.00,,CLR,0.00,VWS V14.00,2013-01-09 21:30:00,
2013-01-09 16:34:00,47.8,39.2,30.20,SW,214,3.0,10.0,72,0.00,,BKN110,0.00,VWS V14.00,2013-01-09 21:34:00,
2013-01-09 16:39:00,47.9,39.3,30.20,WSW,255,3.0,10.0,72,0.00,,BKN110,0.00,VWS V14.00,2013-01-09 21:39:00,
2013-01-09 16:44:00,47.9,39.3,30.21,South,179,2.0,10.0,72,0.00,,BKN110,0.00,VWS V14.00,2013-01-09 21:44:00,
2013-01-09 16:49:00,47.8,39.6,30.21,SSW,195,2.0,10.0,73,0.00,,BKN110,0.00,VWS V14.00,2013-01-09 21:49:00,
2013-01-09 16:54:00,47.8,39.6,30.21,WNW,284,3.0,10.0,73,0.00,,BKN110,0.00,VWS V14.00,2013-01-09 21:54:00,
2013-01-09 16:59:00,47.8,39.6,30.21,South,187,2.0,10.0,73,0.00,,BKN110,0.00,VWS V14.00,2013-01-09 21:59:00,
2013-01-09 17:00:00,47.8,39.6,30.21,South,187,2.0,10.0,73,0.00,,CLR,0.00,VWS V14.00,2013-01-09 22:00:00,
2013-01-09 17:04:00,47.7,39.5,30.21,SW,217,2.0,4.0,73,0.00,,OVC050,0.00,VWS V14.00,2013-01-09 22:04:00,
2013-01-09 17:09:00,47.8,39.6,30.22,West,263,0.0,4.0,73,0.00,,OVC050,0.00,VWS V14.00,2013-01-09 22:09:00,
2013-01-09 17:14:00,47.9,39.3,30.22,West,262,2.0,9.0,72,0.00,,OVC050,0.00,VWS V14.00,2013-01-09 22:14:00,
2013-01-09 17:19:00,48.0,39.4,30.22,West,280,0.0,9.0,72,0.00,,OVC050,0.00,VWS V14.00,2013-01-09 22:19:00,
2013-01-09 17:25:00,48.0,39.4,30.23,SW,224,1.0,9.0,72,0.00,,OVC050,0.00,VWS V14.00,2013-01-09 22:25:00,
2013-01-09 17:30:00,48.1,39.2,30.23,West,281,2.0,2.0,71,0.00,,OVC050,0.00,VWS V14.00,2013-01-09 22:30:00,
2013-01-09 17:35:00,48.3,39.3,30.23,SSW,200,0.0,4.0,71,0.00,,OVC050,0.00,VWS V14.00,2013-01-09 22:35:00,
2013-01-09 17:40:00,48.4,39.1,30.23,West,262,0.0,5.0,70,0.00,,OVC050,0.00,VWS V14.00,2013-01-09 22:40:00,
2013-01-09 17:45:00,48.5,39.2,30.24,WSW,252,0.0,5.0,70,0.00,,OVC050,0.00,VWS V14.00,2013-01-09 22:45:00,
2013-01-09 17:50:00,48.5,39.2,30.23,SW,231,1.0,5.0,70,0.00,,OVC050,0.00,VWS V14.00,2013-01-09 22:50:00,
2013-01-09 17:55:00,48.2,39.2,30.23,South,187,2.0,5.0,71,0.00,,OVC050,0.00,VWS V14.00,2013-01-09 22:55:00,
2013-01-09 18:00:00,47.7,38.8,30.24,SSW,212,2.0,3.0,71,0.00,,OVC050,0.00,VWS V14.00,2013-01-09 23:00:00,
2013-01-09 18:05:00,47.3,38.7,30.24,SSW,205,0.0,3.0,72,0.00,,OVC044,0.00,VWS V14.00,2013-01-09 23:05:00,
2013-01-09 18:10:00,46.7,38.2,30.23,SW,215,1.0,5.0,72,0.00,,OVC044,0.00,VWS V14.00,2013-01-09 23:10:00,
2013-01-09 18:15:00,46.4,38.2,30.23,WSW,257,0.0,5.0,73,0.00,,OVC044,0.00,VWS V14.00,2013-01-09 23:15:00,
2013-01-09 18:20:00,46.0,38.2,30.23,SSW,211,1.0,5.0,74,0.00,,OVC044,0.00,VWS V14.00,2013-01-09 23:20:00,
2013-01-09 18:25:00,45.5,37.7,30.23,SSW,203,1.0,5.0,74,0.00,,OVC044,0.00,VWS V14.00,2013-01-09 23:25:00,
2013-01-09 18:30:00,45.6,37.8,30.23,SSW,212,3.0,7.0,74,0.00,,OVC044,0.00,VWS V14.00,2013-01-09 23:30:00,
2013-01-09 18:35:00,45.8,38.0,30.24,South,172,1.0,7.0,74,0.00,,OVC044,0.00,VWS V14.00,2013-01-09 23:35:00,
2013-01-09 18:40:00,46.0,37.8,30.24,SW,231,4.0,7.0,73,0.00,,OVC044,0.00,VWS V14.00,2013-01-09 23:40:00,
2013-01-09 18:45:00,46.3,38.1,30.24,WSW,251,2.0,7.0,73,0.00,,OVC044,0.00,VWS V14.00,2013-01-09 23:45:00,
2013-01-09 18:50:00,46.0,37.8,30.24,SW,221,4.0,7.0,73,0.00,,OVC044,0.00,VWS V14.00,2013-01-09 23:50:00,
2013-01-09 18:55:00,45.6,37.8,30.25,SSW,195,2.0,7.0,74,0.00,,OVC044,0.00,VWS V14.00,2013-01-09 23:55:00,
2013-01-09 19:00:00,45.6,37.8,30.25,SSW,203,3.0,7.0,74,0.00,,CLR,0.00,VWS V14.00,2013-01-10 00:00:00,
2013-01-09 19:01:00,45.5,37.7,30.25,SSW,210,3.0,3.0,74,0.00,,FEW049,0.00,VWS V14.00,2013-01-10 00:01:00,
2013-01-09 19:06:00,45.2,37.8,30.25,WSW,255,3.0,4.0,75,0.00,,FEW049,0.00,VWS V14.00,2013-01-10 00:06:00,
2013-01-09 19:11:00,44.8,37.4,30.25,South,186,1.0,4.0,75,0.00,,FEW049,0.00,VWS V14.00,2013-01-10 00:11:00,
2013-01-09 19:16:00,44.6,37.5,30.25,SW,231,0.0,4.0,76,0.00,,FEW049,0.00,VWS V14.00,2013-01-10 00:16:00,
2013-01-09 19:21:00,45.1,38.0,30.25,SW,221,1.0,7.0,76,0.00,,FEW049,0.00,VWS V14.00,2013-01-10 00:21:00,
2013-01-09 19:26:00,45.3,37.9,30.25,SSW,212,3.0,7.0,75,0.00,,FEW049,0.00,VWS V14.00,2013-01-10 00:26:00,
2013-01-09 19:30:00,45.4,38.0,30.25,SSW,212,2.0,7.0,75,0.00,,CLR,0.00,VWS V14.00,2013-01-10 00:30:00,
2013-01-09 19:31:00,45.3,37.9,30.25,WSW,238,3.0,6.0,75,0.00,,FEW049,0.00,VWS V14.00,2013-01-10 00:31:00,
2013-01-09 19:36:00,45.6,38.2,30.26,West,259,3.0,6.0,75,0.00,,FEW049,0.00,VWS V14.00,2013-01-10 00:36:00,
2013-01-09 19:41:00,46.2,38.4,30.26,West,268,2.0,6.0,74,0.00,,FEW049,0.00,VWS V14.00,2013-01-10 00:41:00,
2013-01-09 19:46:00,46.8,39.0,30.26,WNW,283,6.0,7.0,74,0.00,,FEW049,0.00,VWS V14.00,2013-01-10 00:46:00,
2013-01-09 19:51:00,47.5,38.9,30.26,WSW,253,3.0,9.0,72,0.00,,FEW049,0.00,VWS V14.00,2013-01-10 00:51:00,
2013-01-09 19:56:00,47.6,39.0,30.27,West,266,3.0,9.0,72,0.00,,FEW049,0.00,VWS V14.00,2013-01-10 00:56:00,
2013-01-09 20:00:00,47.8,38.9,30.27,West,264,4.0,9.0,71,0.00,,CLR,0.00,VWS V14.00,2013-01-10 01:00:00,
2013-01-09 20:01:00,47.7,38.8,30.26,SSW,203,2.0,7.0,71,0.00,,CLR,0.00,VWS V14.00,2013-01-10 01:01:00,
2013-01-09 20:06:00,47.6,38.7,30.26,SW,218,1.0,9.0,71,0.00,,CLR,0.00,VWS V14.00,2013-01-10 01:06:00,
2013-01-09 20:11:00,47.0,38.5,30.26,SSE,163,1.0,9.0,72,0.00,,CLR,0.00,VWS V14.00,2013-01-10 01:11:00,
2013-01-09 20:16:00,46.5,38.3,30.26,South,184,4.0,9.0,73,0.00,,CLR,0.00,VWS V14.00,2013-01-10 01:16:00,
2013-01-09 20:21:00,45.6,37.8,30.26,SSE,150,2.0,9.0,74,0.00,,CLR,0.00,VWS V14.00,2013-01-10 01:21:00,
2013-01-09 20:27:00,44.7,37.6,30.27,SSW,203,1.0,9.0,76,0.00,,CLR,0.00,VWS V14.00,2013-01-10 01:27:00,
2013-01-09 20:30:00,44.5,37.4,30.27,SW,235,0.0,9.0,76,0.00,,CLR,0.00,VWS V14.00,2013-01-10 01:30:00,
2013-01-09 20:32:00,44.3,37.6,30.26,SSW,193,1.0,3.0,77,0.00,,CLR,0.00,VWS V14.00,2013-01-10 01:32:00,
2013-01-09 20:37:00,44.5,37.8,30.26,SSW,198,2.0,7.0,77,0.00,,CLR,0.00,VWS V14.00,2013-01-10 01:37:00,
2013-01-09 20:42:00,44.1,37.4,30.27,South,186,2.0,7.0,77,0.00,,CLR,0.00,VWS V14.00,2013-01-10 01:42:00,
2013-01-09 20:47:00,43.7,37.3,30.27,SW,218,2.0,7.0,78,0.00,,CLR,0.00,VWS V14.00,2013-01-10 01:47:00,
2013-01-09 20:52:00,43.4,37.3,30.27,SW,231,1.0,7.0,79,0.00,,CLR,0.00,VWS V14.00,2013-01-10 01:52:00,
2013-01-09 20:57:00,43.2,37.1,30.27,SSW,208,1.0,7.0,79,0.00,,CLR,0.00,VWS V14.00,2013-01-10 01:57:00,
2013-01-09 21:00:00,43.2,37.1,30.27,SW,219,1.0,7.0,79,0.00,,CLR,0.00,VWS V14.00,2013-01-10 02:00:00,
2013-01-09 21:02:00,43.1,37.4,30.27,SW,221,1.0,4.0,80,0.00,,CLR,0.00,VWS V14.00,2013-01-10 02:02:00,
2013-01-09 21:07:00,42.9,37.2,30.27,WSW,245,1.0,4.0,80,0.00,,CLR,0.00,VWS V14.00,2013-01-10 02:07:00,
2013-01-09 21:12:00,42.8,37.1,30.27,SSW,201,2.0,5.0,80,0.00,,CLR,0.00,VWS V14.00,2013-01-10 02:12:00,
2013-01-09 21:17:00,42.6,36.9,30.27,SW,229,1.0,5.0,80,0.00,,CLR,0.00,VWS V14.00,2013-01-10 02:17:00,
2013-01-09 21:22:00,42.4,36.7,30.27,WSW,246,1.0,5.0,80,0.00,,CLR,0.00,VWS V14.00,2013-01-10 02:22:00,
2013-01-09 21:27:00,42.5,36.8,30.27,SSW,206,0.0,6.0,80,0.00,,CLR,0.00,VWS V14.00,2013-01-10 02:27:00,
2013-01-09 21:30:00,42.5,36.8,30.27,SSW,208,1.0,6.0,80,0.00,,CLR,0.00,VWS V14.00,2013-01-10 02:30:00,
2013-01-09 21:32:00,42.3,36.6,30.27,SW,217,2.0,2.0,80,0.00,,CLR,0.00,VWS V14.00,2013-01-10 02:32:00,
2013-01-09 21:38:00,42.2,36.5,30.27,SSW,203,2.0,6.0,80,0.00,,CLR,0.00,VWS V14.00,2013-01-10 02:38:00,
2013-01-09 21:43:00,41.9,36.5,30.27,SSW,203,2.0,6.0,81,0.00,,CLR,0.00,VWS V14.00,2013-01-10 02:43:00,
2013-01-09 21:48:00,42.1,36.4,30.27,SSW,212,1.0,7.0,80,0.00,,CLR,0.00,VWS V14.00,2013-01-10 02:48:00,
2013-01-09 21:53:00,42.3,36.3,30.27,WSW,242,2.0,7.0,79,0.00,,CLR,0.00,VWS V14.00,2013-01-10 02:53:00,
2013-01-09 21:58:00,42.4,36.4,30.27,SSW,194,2.0,7.0,79,0.00,,CLR,0.00,VWS V14.00,2013-01-10 02:58:00,
2013-01-09 22:00:00,42.3,36.3,30.27,SW,222,1.0,7.0,79,0.00,,CLR,0.00,VWS V14.00,2013-01-10 03:00:00,
2013-01-09 22:03:00,42.2,36.2,30.28,SSW,197,1.0,4.0,79,0.00,,CLR,0.00,VWS V14.00,2013-01-10 03:03:00,
2013-01-09 22:08:00,41.9,35.9,30.27,WSW,239,1.0,4.0,79,0.00,,CLR,0.00,VWS V14.00,2013-01-10 03:08:00,
2013-01-09 22:13:00,41.7,35.7,30.27,SSW,200,2.0,5.0,79,0.00,,CLR,0.00,VWS V14.00,2013-01-10 03:13:00,
2013-01-09 22:18:00,41.9,35.9,30.27,SW,218,3.0,5.0,79,0.00,,CLR,0.00,VWS V14.00,2013-01-10 03:18:00,
2013-01-09 22:23:00,42.0,35.7,30.27,SW,215,5.0,6.0,78,0.00,,CLR,0.00,VWS V14.00,2013-01-10 03:23:00,
2013-01-09 22:28:00,42.2,35.5,30.27,SSW,205,2.0,8.0,77,0.00,,CLR,0.00,VWS V14.00,2013-01-10 03:28:00,
2013-01-09 22:30:00,42.2,35.5,30.27,SW,219,4.0,8.0,77,0.00,,CLR,0.00,VWS V14.00,2013-01-10 03:30:00,
2013-01-09 22:33:00,42.3,35.6,30.27,SSW,195,5.0,9.0,77,0.00,,CLR,0.00,VWS V14.00,2013-01-10 03:33:00,
2013-01-09 22:38:00,42.5,35.8,30.28,SW,223,2.0,9.0,77,0.00,,CLR,0.00,VWS V14.00,2013-01-10 03:38:00,
2013-01-09 22:43:00,42.5,35.5,30.27,SW,222,2.0,9.0,76,0.00,,CLR,0.00,VWS V14.00,2013-01-10 03:43:00,
2013-01-09 22:48:00,42.9,35.2,30.28,South,172,4.0,9.0,74,0.00,,CLR,0.00,VWS V14.00,2013-01-10 03:48:00,
2013-01-09 22:53:00,43.4,35.0,30.27,SW,219,2.0,10.0,72,0.00,,CLR,0.00,VWS V14.00,2013-01-10 03:53:00,
2013-01-09 22:58:00,43.4,35.0,30.28,WSW,256,4.0,11.0,72,0.00,,CLR,0.00,VWS V14.00,2013-01-10 03:58:00,
2013-01-09 23:00:00,43.5,35.1,30.28,WSW,239,2.0,11.0,72,0.00,,CLR,0.00,VWS V14.00,2013-01-10 04:00:00,
2013-01-09 23:03:00,43.4,35.0,30.28,SW,232,1.0,4.0,72,0.00,,CLR,0.00,VWS V14.00,2013-01-10 04:03:00,
2013-01-09 23:08:00,43.2,34.8,30.28,SSW,212,2.0,7.0,72,0.00,,CLR,0.00,VWS V14.00,2013-01-10 04:08:00,
2013-01-09 23:13:00,43.3,34.5,30.28,WSW,246,7.0,8.0,71,0.00,,CLR,0.00,VWS V14.00,2013-01-10 04:13:00,
2013-01-09 23:19:00,43.6,34.5,30.28,NW,326,2.0,8.0,70,0.00,,CLR,0.00,VWS V14.00,2013-01-10 04:19:00,
2013-01-09 23:24:00,43.9,34.4,30.28,SSW,197,3.0,11.0,69,0.00,,CLR,0.00,VWS V14.00,2013-01-10 04:24:00,
2013-01-09 23:29:00,44.2,34.3,30.29,West,269,3.0,11.0,68,0.00,,CLR,0.00,VWS V14.00,2013-01-10 04:29:00,
2013-01-09 23:30:00,44.2,34.3,30.29,SSW,207,1.0,11.0,68,0.00,,CLR,0.00,VWS V14.00,2013-01-10 04:30:00,
2013-01-09 23:34:00,44.3,34.0,30.28,WSW,252,2.0,10.0,67,0.00,,CLR,0.00,VWS V14.00,2013-01-10 04:34:00,
2013-01-09 23:39:00,44.1,33.9,30.29,WSW,240,3.0,10.0,67,0.00,,CLR,0.00,VWS V14.00,2013-01-10 04:39:00,
2013-01-09 23:44:00,44.1,33.9,30.29,SW,219,4.0,10.0,67,0.00,,CLR,0.00,VWS V14.00,2013-01-10 04:44:00,
2013-01-09 23:49:00,44.5,33.5,30.30,WSW,255,4.0,10.0,65,0.00,,CLR,0.00,VWS V14.00,2013-01-10 04:49:00,
2013-01-09 23:54:00,44.6,33.6,30.30,WSW,253,2.0,11.0,65,0.00,,CLR,0.00,VWS V14.00,2013-01-10 04:54:00,
2013-01-09 23:59:00,44.6,33.2,30.30,WNW,285,11.0,11.0,64,0.00,,CLR,0.00,VWS V14.00,2013-01-10 04:59:00,